Location: Kampung Segan
(3.1399°N, 113.1002°E)
Time: 22:18:57
(UTC+00:00)

Ariane H10 - Visible Passes

Search period start: 05 November 2024 00:00
Search period end: 15 November 2024 00:00
Orbit: 425 x 35963 km, 7.0° (Epoch: 04 November)

Date Brightness Start Highest point End Pass type
(mag) Time Alt. Az. Time Alt. Az. Time Alt. Az.
06 Nov 9.3 05:24:12 10° W 06:53:07 29° WSW 10:16:55 10° W visible
06 Nov 6.3 14:43:24 10° W 14:50:55 21° W 14:50:55 21° W visible
07 Nov 4.9 02:10:03 10° W 04:02:27 72° SW 12:08:47 44° ENE visible
08 Nov 3.7 20:28:45 45° W 20:31:01 77° S 06:19:22 10° E visible
10 Nov 9.3 05:13:51 10° W 06:43:00 29° WSW 10:07:58 10° W visible
10 Nov 6.1 14:33:03 10° W 14:41:15 22° W 14:41:15 22° W visible
11 Nov 5.0 01:59:47 10° W 11:52:32 84° N 11:59:03 39° ENE visible
12 Nov 3.6 20:18:44 52° WSW 20:20:36 75° S 06:08:50 10° E visible
14 Nov 9.2 05:03:04 10° W 06:32:34 29° W 09:59:21 10° W visible
14 Nov 6.0 14:22:18 10° W 14:31:16 24° W 14:31:16 24° W visible
